Retour au catalogue

COSMOS 1275 DEB

ActifPO
NORAD 12732·DEBRIS·🇷🇺 Russia

Lancé Jun 4, 1981 depuis Plesetsk Cosmodrome

Loading…

Prochains Passages (prochaines 24 heures)

TLE

FraisSource: Space-Track

Époque: Sep 14, 2026, 14:38 UTC

1 12732U 81053BZ  26257.61040720  .00000279  00000-0  20529-3 0  9993
2 12732  82.9920 356.0700 0051734 199.5012 225.5151 13.91634485283586

Suivez COSMOS 1275 DEB en temps réel avec AllMySat

Download on the App Store